Powrót do katalogu

STARLINK-36821

AktywnyŁącznośćSSO
NORAD 67880·PAYLOAD·🇺🇸 United States

Wystrzelony Feb 21, 2026 z Vandenberg Space Force Base

Loading…

Następne Przeloty (najbliższe 24 godziny)

TLE

ŚwieżeSource: CelesTrak SupGP

Epoka: Sep 15, 2026, 02:39 UTC

1 67880C 26035B   26258.11090278 -.00015907  00000+0 -49464-3 0  2587
2 67880  97.2848 189.9638 0001997  93.7314 221.7275 15.33392233    17

Śledź STARLINK-36821 w czasie rzeczywistym z AllMySat

Download on the App Store